Weather History for Grand Marais, MN

Change the Weather History Date:

Saturday, November 10, 2012

  Actual Average (KCKC) Record (KCKC)
Temperature  
Mean Temperature 39 °F -  
Max Temperature 45 °F 33 °F 53 °F (2010)
Min Temperature 33 °F 22 °F 12 °F (1996)
Degree Days  
Heating Degree Days 26    
Moisture  
Dew Point 35 °F    
Average Humidity 84    
Maximum Humidity 93    
Minimum Humidity 67    
Precipitation  
Precipitation 0.37 in - - ()
Sea Level Pressure  
Sea Level Pressure 29.93 in    
Wind  
Wind Speed 17 mph (ENE)    
Max Wind Speed 24 mph    
Max Gust Speed 39 mph    
Averages and records for this station are not official NWS values.
T = Trace of Precipitation, MM = Missing Value Source: NWS Daily Summary

Daily Weather History Graph

Daily Weather History Graph

Search for Another Location

Airport:

Trip Planner

Search our weather history database for the weather conditions in past years. The results will help you decide how hot, cold, wet, or windy it might be!

Date:

Astronomy

Nov. 10, 2012 Rise Set
Actual Time 7:00 AM CST 4:29 PM CST
Civil Twilight 6:26 AM CST 5:03 PM CST
Nautical Twilight 5:49 AM CST 5:40 PM CST
Astronomical Twilight 5:13 AM CST 6:16 PM CST
Moon 2:50 AM CST (11/10) 2:29 PM CST (11/10)
Length of Visible Light 10h 36m
Length of Day
9h 29m
Waning Crescent, 14% of the Moon is Illuminated
Nov 10
Waning Crescent
Nov 13
New
Nov 20
First Quarter
Nov 28
Full
Dec 6
Last Quarter

Hourly Weather History & Observations

Time (CST) Temp. Windchill Dew Point Humidity Pressure Visibility Wind Dir Wind Speed Gust Speed Precip Events Conditions
12:56 AM 33.1 °F 23.9 °F 24.1 °F 70% 30.25 in - NE 12.7 mph 19.6 mph N/A   Unknown
1:56 AM 34.0 °F 23.4 °F 24.1 °F 67% 30.20 in - NE 17.3 mph 25.3 mph N/A   Unknown
2:56 AM 35.1 °F 25.5 °F 25.0 °F 67% 30.19 in - ENE 15.0 mph 24.2 mph N/A   Unknown
3:56 AM 36.0 °F 24.2 °F 28.0 °F 73% 30.15 in - ENE 24.2 mph 33.4 mph N/A   Unknown
4:56 AM 36.0 °F 27.5 °F 27.0 °F 70% 30.12 in - NE 12.7 mph 29.9 mph N/A   Unknown
5:56 AM 36.0 °F 25.6 °F 28.0 °F 73% 30.11 in - ENE 18.4 mph 26.5 mph N/A   Unknown
6:56 AM 36.0 °F 26.7 °F 30.9 °F 82% 30.12 in - ENE 15.0 mph 25.3 mph 0.01 in   Unknown
7:56 AM 37.0 °F 26.4 °F 34.0 °F 89% 30.09 in - NE 20.7 mph 32.2 mph 0.04 in   Unknown
8:56 AM 37.9 °F 27.9 °F 35.1 °F 89% 30.06 in - ENE 19.6 mph 35.7 mph 0.01 in   Unknown
9:56 AM 37.0 °F 25.9 °F 34.0 °F 89% 30.03 in - NE 23.0 mph 38.0 mph 0.01 in   Unknown
10:56 AM 37.0 °F 27.7 °F 34.0 °F 89% 29.98 in - NE 16.1 mph 34.5 mph 0.02 in   Unknown
11:56 AM 39.0 °F 28.8 °F 35.1 °F 86% 29.93 in - ENE 21.9 mph 35.7 mph 0.05 in   Unknown
12:56 PM 39.0 °F 28.5 °F 36.0 °F 89% 29.88 in - ENE 23.0 mph 35.7 mph 0.04 in   Unknown
1:56 PM 41.0 °F 31.6 °F 37.9 °F 89% 29.84 in - ENE 20.7 mph 39.1 mph 0.04 in   Unknown
2:56 PM 42.1 °F 33.1 °F 37.9 °F 85% 29.83 in - ENE 20.7 mph 33.4 mph 0.02 in   Unknown
3:56 PM 43.0 °F 34.2 °F 39.9 °F 89% 29.81 in - ENE 20.7 mph 39.1 mph 0.03 in   Unknown
4:56 PM 43.0 °F 34.2 °F 39.9 °F 89% 29.80 in - ENE 20.7 mph 32.2 mph 0.04 in   Unknown
5:56 PM 43.0 °F 35.1 °F 39.9 °F 89% 29.78 in - ENE 17.3 mph 28.8 mph 0.03 in   Unknown
6:56 PM 43.0 °F 34.8 °F 41.0 °F 93% 29.77 in - ENE 18.4 mph 27.6 mph 0.01 in   Unknown
7:56 PM 44.1 °F 37.7 °F 41.0 °F 89% 29.74 in - NE 12.7 mph 25.3 mph 0.02 in   Unknown
8:56 PM 44.1 °F 37.7 °F 41.0 °F 89% 29.72 in - ENE 12.7 mph 21.9 mph N/A   Unknown
9:56 PM 44.1 °F 37.1 °F 41.0 °F 89% 29.70 in - ENE 15.0 mph 25.3 mph N/A   Unknown
10:56 PM 45.0 °F 37.9 °F 42.1 °F 90% 29.65 in - NE 16.1 mph 25.3 mph N/A   Unknown
11:56 PM 45.0 °F 37.9 °F 43.0 °F 93% 29.62 in - ENE 16.1 mph 27.6 mph N/A   Unknown